GW0143 Weather Reports


time (UTC)temp
C
wind
direction
speed
KPH
gust
KPH
rain 1hr
cm
rain 24hr
cm
rain mn
cm
humidity
%
barometer
mb
20260502151608 6 158 1.6 4.8 0.00 0.00 0.00 49 1025.8
20260502150528 5 266 3.2 6.4 0.00 0.00 0.00 58 1025.7
20260502130530 -1 115 3.2 4.8 0.00 0.00 0.00 82 1025.5
20260502123531 -3 134 4.8 8.0 0.00 0.00 0.00 86 1025.1
20260502122531 -3 124 4.8 6.4 0.00 0.00 0.00 86 1025.1
20260502121523 -4 133 4.8 8.0 0.00 0.00 0.00 87 1025.1
20260502120531 -4 138 6.4 8.0 0.00 0.00 0.00 87 1025.2
20260502115552 -5 159 4.8 8.0 0.00 0.00 0.00 86 1025.1
20260502114532 -5 140 3.2 3.2 0.00 0.00 0.00 87 1025.0
20260502113532 -5 127 3.2 4.8 0.00 0.00 0.00 87 1025.0
20260502112517 -4 169 3.2 4.8 0.00 0.00 0.00 86 1024.9
20260502111517 -3 176 4.8 6.4 0.00 0.00 0.00 85 1024.9
20260502110518 -4 152 4.8 6.4 0.00 0.00 0.00 88 1025.0
20260502105518 -5 182 3.2 4.8 0.00 0.00 0.00 88 1025.0
20260502104518 -5 138 3.2 4.8 0.00 0.00 0.00 88 1024.9
20260502103518 -5 137 3.2 6.4 0.00 0.00 0.00 88 1024.9
20260502102518 -5 167 4.8 4.8 0.00 0.00 0.00 88 1024.9
20260502101519 -4 220 1.6 3.2 0.00 0.00 0.00 87 1024.8
20260502100519 -3 140 4.8 4.8 0.00 0.00 0.00 87 1024.8
20260502091520 -4 147 4.8 4.8 0.00 0.00 0.00 87 1024.7
20260502090540 -4 208 4.8 6.4 0.00 0.00 0.00 88 1024.6
20260502071522 -1 154 4.8 4.8 0.00 0.00 0.00 85 1024.9
20260502070523 -1 128 1.6 6.4 0.00 0.00 0.00 85 1024.7
20260502065516 -1 141 8.0 9.7 0.00 0.00 0.00 84 1024.6
20260502064516 -1 139 8.0 9.7 0.00 0.00 0.00 84 1024.5
20260502063523 -1 138 6.4 9.7 0.00 0.00 0.00 83 1024.6
20260502062523 -1 126 6.4 11.3 0.00 0.00 0.00 84 1024.5
20260502061523 -1 130 6.4 9.7 0.00 0.00 0.00 84 1024.4
20260502060517 -1 138 8.0 9.7 0.00 0.00 0.00 84 1024.4
20260502055517 -1 136 8.0 11.3 0.00 0.00 0.00 85 1024.4
20260502054518 -1 141 8.0 9.7 0.00 0.00 0.00 85 1024.4
20260502053524 -1 134 6.4 8.0 0.00 0.00 0.00 85 1024.4
20260502052524 -1 179 6.4 6.4 0.00 0.00 0.00 85 1024.4
20260502051524 -1 151 4.8 6.4 0.00 0.00 0.00 87 1024.4
20260502050525 -1 188 4.8 8.0 0.00 0.00 0.00 86 1024.6
20260502045518 -1 175 6.4 12.9 0.00 0.00 0.00 86 1024.6
20260502044519 -1 141 6.4 8.0 0.00 0.00 0.00 85 1024.6
20260502043525 0 142 6.4 8.0 0.00 0.00 0.00 84 1024.5
20260502042545 0 141 6.4 6.4 0.00 0.00 0.00 83 1024.5
20260502041525 0 134 4.8 6.4 0.00 0.00 0.00 84 1024.5
20260502040545 0 133 4.8 8.0 0.00 0.00 0.00 84 1024.4
20260502035526 0 139 4.8 6.4 0.00 0.00 0.00 83 1024.3
20260502034526 1 104 4.8 6.4 0.00 0.00 0.00 83 1024.3
20260502033526 1 132 4.8 4.8 0.00 0.00 0.00 83 1024.3
20260502032526 1 174 3.2 4.8 0.00 0.00 0.00 81 1024.1
20260502031527 1 141 4.8 6.4 0.00 0.00 0.00 80 1024.0
20260502030527 1 156 4.8 6.4 0.00 0.00 0.00 82 1023.8
20260502025527 1 162 3.2 4.8 0.00 0.00 0.00 81 1023.7
20260502024527 1 174 4.8 8.0 0.00 0.00 0.00 80 1023.4
20260502023547 1 142 6.4 8.0 0.00 0.00 0.00 82 1023.4
20260502022642 1 174 6.4 8.0 0.00 0.00 0.00 81 1023.2
20260502021541 1 175 6.4 8.0 0.00 0.00 0.00 80 1023.0
20260502020542 2 180 6.4 9.7 0.00 0.00 0.00 80 1022.8
20260502015522 2 196 11.3 12.9 0.00 0.00 0.00 78 1022.6
20260502014522 2 193 8.0 11.3 0.00 0.00 0.00 76 1022.4
20260502013524 3 219 11.3 16.1 0.00 0.00 0.00 73 1022.1
20260502012528 4 225 4.8 6.4 0.00 0.00 0.00 65 1022.0
20260502011529 4 183 4.8 6.4 0.00 0.00 0.00 64 1021.9
20260502010517 5 161 4.8 8.0 0.00 0.00 0.00 59 1021.8
20260502005518 5 64 8.0 9.7 0.00 0.00 0.00 55 1021.6
20260502004529 5 79 3.2 4.8 0.00 0.00 0.00 53 1021.5
20260502003529 5 74 3.2 8.0 0.00 0.00 0.00 51 1021.5
20260502002523 5 69 9.7 14.5 0.00 0.00 0.00 53 1021.4
20260502001518 5 62 11.3 16.1 0.00 0.00 0.00 54 1021.3
20260502000530 5 51 4.8 6.4 0.00 0.00 0.00 53 1021.2
20260501235518 5 72 8.0 9.7 0.00 0.00 0.00 53 1021.1
20260501234518 5 66 9.7 14.5 0.00 0.00 0.00 55 1021.0
20260501233558 6 60 11.3 16.1 0.00 0.00 0.00 54 1020.9
20260501232518 6 358 6.4 12.9 0.00 0.00 0.00 51 1020.9
20260501231531 6 325 4.8 8.0 0.00 0.00 0.00 51 1020.8
20260501230531 5 360 4.8 8.0 0.00 0.00 0.00 50 1020.9
20260501225519 5 64 6.4 11.3 0.00 0.00 0.00 51 1020.9
20260501224519 5 45 12.9 16.1 0.00 0.00 0.00 54 1020.9
20260501223520 5 61 6.4 11.3 0.00 0.00 0.00 55 1020.9
20260501222519 5 14 4.8 8.0 0.00 0.00 0.00 55 1021.0
20260501221520 5 13 3.2 11.3 0.00 0.00 0.00 54 1021.1
20260501220520 5 54 9.7 14.5 0.00 0.00 0.00 57 1021.1
20260501215520 6 15 6.4 12.9 0.00 0.00 0.00 59 1021.1
20260501214520 6 34 6.4 11.3 0.00 0.00 0.00 59 1021.2
20260501213521 5 35 8.0 12.9 0.00 0.00 0.00 60 1021.3
20260501212541 5 32 6.4 14.5 0.00 0.00 0.00 62 1021.6
20260501211521 4 3 4.8 8.0 0.00 0.00 0.00 68 1021.7
20260501210521 4 28 6.4 11.3 0.00 0.00 0.00 66 1021.7
20260501205521 4 14 4.8 9.7 0.00 0.00 0.00 66 1021.7
20260501204521 4 34 6.4 14.5 0.00 0.00 0.00 66 1021.8
20260501203519 4 238 3.2 6.4 0.00 0.00 0.00 66 1021.8
20260501202519 3 44 3.2 8.0 0.00 0.00 0.00 69 1022.0
20260501201522 3 9 4.8 9.7 0.00 0.00 0.00 71 1022.1
20260501200519 3 16 3.2 6.4 0.00 0.00 0.00 71 1022.2
20260501195519 3 109 1.6 4.8 0.00 0.00 0.00 71 1022.2
20260501194520 3 335 3.2 6.4 0.00 0.00 0.00 72 1022.2
20260501193522 3 352 8.0 11.3 0.00 0.00 0.00 74 1022.1
20260501192523 3 10 3.2 9.7 0.00 0.00 0.00 71 1022.2
20260501191517 2 322 4.8 9.7 0.00 0.00 0.00 78 1022.4
20260501190517 3 30 6.4 11.3 0.00 0.00 0.00 77 1022.4
20260501185517 2 11 6.4 12.9 0.00 0.00 0.00 80 1022.5
20260501184518 2 336 6.4 11.3 0.00 0.00 0.00 82 1022.5
20260501183558 2 341 8.0 17.7 0.00 0.00 0.00 82 1022.6
20260501182518 1 337 6.4 11.3 0.00 0.00 0.00 83 1022.7
20260501181518 1 333 8.0 12.9 0.00 0.00 0.00 86 1022.8
20260501175520 1 334 8.0 11.3 0.00 0.00 0.00 87 1023.0
20260501174559 1 350 6.4 11.3 0.00 0.00 0.00 88 1023.0
20260501173519 0 350 8.0 12.9 0.00 0.00 0.00 88 1023.0
20260501172519 0 357 8.0 11.3 0.00 0.00 0.00 88 1023.0
20260501171519 0 350 8.0 11.3 0.00 0.00 0.00 88 1022.9
20260501170519 0 354 8.0 12.9 0.00 0.00 0.00 88 1022.9
20260501165520 0 348 9.7 14.5 0.00 0.00 0.00 88 1022.9
20260501164520 0 342 8.0 14.5 0.00 0.00 0.00 89 1022.9
20260501163540 0 329 8.0 11.3 0.00 0.00 0.00 89 1022.7
20260501162521 0 339 8.0 11.3 0.00 0.00 0.00 88 1022.6
20260501161521 0 348 8.0 11.3 0.00 0.00 0.00 86 1022.5
20260501160521 0 352 6.4 9.7 0.00 0.00 0.00 88 1022.4
20260501155521 0 338 4.8 9.7 0.00 0.00 0.00 88 1022.3
20260501153544 0 351 4.8 6.4 0.00 0.00 0.00 88 1022.2